When you browse on this site, cookies collect data to enhance your experience and personalize the content and advertising you see.
Visit our Privacy Policy to learn more. By continuing to use the site, you agree to this use of cookies and data.
  • In Österreich
  • Länderverzeichnis
  • Für 7 Tage
  • Wassertemperatur
  • Satellitenkarten
  • Wetterkarte
  • News
  • Widgets
  • user-avatar
    Anmelden

    Stündliche Wetter Eremkovichi

    Heute, 17 Januar, Donnerstag

    Zeit Temperatur Niederschläge Wind Luftdruck Luftfeuchtigkeit
    00:00 -14°C° 0 mm 3 m/S 737 mmHg 96%
    01:00 -15°C° 0 mm 4 m/S 737 mmHg 96%
    02:00 -14°C° 0 mm 4 m/S 737 mmHg 96%
    03:00 -13°C° 0 mm 5 m/S 736 mmHg 96%
    04:00 -12°C° 0 mm 6 m/S 736 mmHg 95%
    05:00 -11°C° 0 mm 7 m/S 736 mmHg 95%
    06:00 -9°C° 0.1 mm 7 m/S 735 mmHg 94%
    07:00 -8°C° 0.1 mm 7 m/S 734 mmHg 93%
    08:00 -6°C° 0.1 mm 7 m/S 734 mmHg 92%
    09:00 -4°C° 0.2 mm 7 m/S 734 mmHg 92%
    10:00 -5°C° 0.2 mm 8 m/S 733 mmHg 92%
    11:00 -4°C° 0.2 mm 8 m/S 733 mmHg 91%
    12:00 -2°C° 0.2 mm 8 m/S 732 mmHg 92%
    13:00 -2°C° 0.2 mm 8 m/S 732 mmHg 92%
    14:00 -2°C° 0.2 mm 8 m/S 731 mmHg 92%
    15:00 -2°C° 0.1 mm 8 m/S 731 mmHg 91%
    16:00 -2°C° 0.1 mm 8 m/S 731 mmHg 89%
    17:00 -2°C° 0.1 mm 8 m/S 731 mmHg 88%
    18:00 -2°C° 0.1 mm 8 m/S 731 mmHg 88%
    19:00 -2°C° 0.1 mm 8 m/S 731 mmHg 88%
    20:00 -2°C° 0.1 mm 8 m/S 731 mmHg 88%
    21:00 -2°C° 0 mm 8 m/S 732 mmHg 89%
    22:00 -2°C° 0 mm 7 m/S 732 mmHg 90%
    23:00 -2°C° 0 mm 7 m/S 733 mmHg 90%

    Morgen, 18 Januar, Freitag

    Zeit Temperatur Niederschläge Wind Luftdruck Luftfeuchtigkeit
    00:00 -2°C° 0 mm 6 m/S 733 mmHg 90%
    01:00 -3°C° 0 mm 6 m/S 733 mmHg 90%
    02:00 -3°C° 0 mm 6 m/S 734 mmHg 90%
    03:00 -3°C° 0 mm 6 m/S 734 mmHg 90%
    04:00 -2°C° 0 mm 5 m/S 734 mmHg 91%
    05:00 -1°C° 0 mm 5 m/S 734 mmHg 91%
    06:00 -1°C° 0 mm 5 m/S 734 mmHg 91%
    07:00 -2°C° 0 mm 5 m/S 734 mmHg 92%
    08:00 -2°C° 0 mm 4 m/S 734 mmHg 92%
    09:00 -2°C° 0 mm 5 m/S 734 mmHg 94%
    10:00 -2°C° 0 mm 5 m/S 734 mmHg 95%
    11:00 -2°C° 0 mm 5 m/S 734 mmHg 96%
    12:00 -2°C° 0.2 mm 6 m/S 734 mmHg 96%
    13:00 -2°C° 0.2 mm 6 m/S 734 mmHg 95%
    14:00 -2°C° 0.2 mm 7 m/S 733 mmHg 95%
    15:00 -2°C° 0.2 mm 7 m/S 733 mmHg 93%
    16:00 -2°C° 0.2 mm 7 m/S 733 mmHg 90%
    17:00 -2°C° 0.2 mm 7 m/S 733 mmHg 88%
    18:00 -3°C° 0.1 mm 7 m/S 734 mmHg 88%
    19:00 -4°C° 0.1 mm 7 m/S 734 mmHg 88%
    20:00 -6°C° 0.1 mm 7 m/S 735 mmHg 87%
    21:00 -6°C° 0.1 mm 6 m/S 736 mmHg 88%
    22:00 -9°C° 0.1 mm 6 m/S 737 mmHg 89%
    23:00 -10°C° 0.1 mm 5 m/S 738 mmHg 90%

    übermorgen, 19 Januar, Samstag

    Zeit Temperatur Niederschläge Wind Luftdruck Luftfeuchtigkeit
    00:00 -11°C° 0 mm 5 m/S 739 mmHg 91%
    01:00 -11°C° 0 mm 4 m/S 740 mmHg 91%
    02:00 -11°C° 0 mm 4 m/S 741 mmHg 92%
    03:00 -12°C° 0 mm 4 m/S 741 mmHg 92%
    04:00 -12°C° 0 mm 4 m/S 741 mmHg 92%
    05:00 -12°C° 0 mm 4 m/S 742 mmHg 92%
    06:00 -12°C° 0 mm 4 m/S 742 mmHg 93%
    07:00 -12°C° 0 mm 4 m/S 743 mmHg 93%
    08:00 -11°C° 0 mm 4 m/S 743 mmHg 94%
    09:00 -12°C° 0 mm 5 m/S 744 mmHg 92%
    10:00 -11°C° 0 mm 5 m/S 744 mmHg 91%
    11:00 -10°C° 0 mm 5 m/S 744 mmHg 89%
    12:00 -8°C° 0 mm 5 m/S 744 mmHg 89%
    13:00 -8°C° 0 mm 5 m/S 745 mmHg 89%
    14:00 -7°C° 0 mm 5 m/S 745 mmHg 89%
    15:00 -8°C° 0 mm 5 m/S 745 mmHg 90%
    16:00 -8°C° 0 mm 5 m/S 745 mmHg 90%
    17:00 -9°C° 0 mm 4 m/S 745 mmHg 90%
    18:00 -9°C° 0 mm 4 m/S 745 mmHg 91%
    19:00 -9°C° 0 mm 4 m/S 746 mmHg 91%
    20:00 -10°C° 0 mm 4 m/S 746 mmHg 92%
    21:00 -10°C° 0.1 mm 5 m/S 746 mmHg 91%
    22:00 -10°C° 0.1 mm 6 m/S 746 mmHg 90%
    23:00 -10°C° 0.1 mm 6 m/S 746 mmHg 90%

    20 Januar, Sonntag

    Zeit Temperatur Niederschläge Wind Luftdruck Luftfeuchtigkeit
    00:00 -9°C° 0 mm 6 m/S 746 mmHg 90%
    01:00 -9°C° 0 mm 6 m/S 746 mmHg 90%
    02:00 -8°C° 0 mm 6 m/S 746 mmHg 90%
    03:00 -7°C° 0 mm 5 m/S 746 mmHg 90%
    04:00 -7°C° 0 mm 5 m/S 746 mmHg 91%
    05:00 -8°C° 0 mm 4 m/S 746 mmHg 91%
    06:00 -8°C° 0 mm 4 m/S 746 mmHg 91%
    07:00 -9°C° 0 mm 4 m/S 747 mmHg 91%
    08:00 -10°C° 0 mm 4 m/S 747 mmHg 91%
    09:00 -9°C° 0 mm 4 m/S 747 mmHg 91%
    10:00 -8°C° 0 mm 4 m/S 747 mmHg 91%
    11:00 -8°C° 0 mm 5 m/S 747 mmHg 91%
    12:00 -7°C° 0 mm 5 m/S 747 mmHg 91%
    13:00 -8°C° 0 mm 6 m/S 746 mmHg 91%
    14:00 -6°C° 0 mm 6 m/S 746 mmHg 91%
    15:00 -8°C° 0 mm 6 m/S 746 mmHg 91%
    16:00 -9°C° 0 mm 6 m/S 746 mmHg 92%
    17:00 -8°C° 0 mm 5 m/S 745 mmHg 93%
    18:00 -10°C° 0 mm 5 m/S 745 mmHg 94%
    19:00 -10°C° 0 mm 5 m/S 745 mmHg 94%
    20:00 -10°C° 0 mm 4 m/S 745 mmHg 94%
    21:00 -11°C° 0 mm 5 m/S 745 mmHg 95%
    22:00 -11°C° 0 mm 5 m/S 745 mmHg 95%
    23:00 -11°C° 0 mm 5 m/S 744 mmHg 95%

    21 Januar, Montag

    Zeit Temperatur Niederschläge Wind Luftdruck Luftfeuchtigkeit
    00:00 -11°C° 0 mm 5 m/S 744 mmHg 95%
    01:00 -12°C° 0 mm 5 m/S 744 mmHg 94%
    02:00 -12°C° 0 mm 6 m/S 743 mmHg 94%
    03:00 -11°C° 0.3 mm 6 m/S 743 mmHg 94%
    04:00 -11°C° 0.3 mm 5 m/S 743 mmHg 94%
    05:00 -10°C° 0.3 mm 5 m/S 742 mmHg 94%
    06:00 -10°C° 0.2 mm 5 m/S 743 mmHg 93%
    07:00 -10°C° 0.2 mm 5 m/S 743 mmHg 92%
    08:00 -10°C° 0.2 mm 5 m/S 743 mmHg 91%
    09:00 -10°C° 0 mm 5 m/S 743 mmHg 90%
    10:00 -11°C° 0 mm 6 m/S 744 mmHg 89%
    11:00 -11°C° 0 mm 6 m/S 744 mmHg 88%
    12:00 -12°C° 0 mm 6 m/S 745 mmHg 87%
    13:00 -12°C° 0 mm 6 m/S 745 mmHg 86%
    14:00 -12°C° 0 mm 6 m/S 746 mmHg 84%
    15:00 -13°C° 0 mm 5 m/S 746 mmHg 87%
    16:00 -14°C° 0 mm 4 m/S 746 mmHg 89%
    17:00 -16°C° 0 mm 4 m/S 747 mmHg 92%
    18:00 -15°C° 0 mm 3 m/S 747 mmHg 92%
    19:00 -16°C° 0 mm 3 m/S 747 mmHg 93%
    20:00 -16°C° 0 mm 3 m/S 748 mmHg 93%
    21:00 -16°C° 0 mm 3 m/S 748 mmHg 93%
    22:00 -16°C° 0 mm 3 m/S 748 mmHg 93%
    23:00 -16°C° 0 mm 3 m/S 748 mmHg 93%

    22 Januar, Dienstag

    Zeit Temperatur Niederschläge Wind Luftdruck Luftfeuchtigkeit
    00:00 -16°C° 0 mm 4 m/S 748 mmHg 93%
    01:00 -16°C° 0 mm 4 m/S 747 mmHg 94%
    02:00 -16°C° 0 mm 4 m/S 747 mmHg 94%
    03:00 -15°C° 0 mm 4 m/S 747 mmHg 94%
    04:00 -15°C° 0 mm 4 m/S 747 mmHg 94%
    05:00 -15°C° 0 mm 4 m/S 747 mmHg 94%
    06:00 -15°C° 0 mm 4 m/S 747 mmHg 94%
    07:00 -15°C° 0 mm 5 m/S 747 mmHg 93%
    08:00 -15°C° 0 mm 5 m/S 747 mmHg 93%
    09:00 -14°C° 0 mm 5 m/S 747 mmHg 92%
    10:00 -14°C° 0 mm 6 m/S 747 mmHg 92%
    11:00 -12°C° 0 mm 6 m/S 746 mmHg 91%
    12:00 -11°C° 0 mm 6 m/S 746 mmHg 92%
    13:00 -11°C° 0 mm 6 m/S 746 mmHg 92%
    14:00 -10°C° 0 mm 6 m/S 746 mmHg 93%
    15:00 -10°C° 0.1 mm 6 m/S 746 mmHg 93%
    16:00 -10°C° 0.1 mm 6 m/S 745 mmHg 92%
    17:00 -8°C° 0.1 mm 5 m/S 745 mmHg 92%
    18:00 -10°C° 0.1 mm 5 m/S 745 mmHg 93%
    19:00 -10°C° 0.1 mm 5 m/S 745 mmHg 93%
    20:00 -10°C° 0.1 mm 5 m/S 745 mmHg 93%
    21:00 -10°C° 0.1 mm 5 m/S 746 mmHg 93%
    22:00 -10°C° 0.1 mm 5 m/S 746 mmHg 94%
    23:00 -10°C° 0.1 mm 4 m/S 746 mmHg 94%
    Mehr zeigen